| time (UTC) | temp C | wind direction | speed KPH | gust KPH | rain 1hr cm | rain 24hr cm | rain mn cm | humidity % | barometer mb |
| 20260505195939 | 13 | 103 | 6.4 | 17.7 | 0.03 | 2.69 | 2.69 | 92 | 1005.9 |
| 20260505195439 | 13 | 56 | 4.8 | 17.7 | 0.03 | 2.69 | 2.69 | 91 | 1006.3 |
| 20260505194916 | 13 | 70 | 4.8 | 12.9 | 0.00 | 2.67 | 2.67 | 91 | 1006.6 |
| 20260505194413 | 13 | 115 | 4.8 | 12.9 | 0.00 | 2.67 | 2.67 | 91 | 1006.5 |
| 20260505194357 | 13 | 64 | 3.2 | 20.9 | 0.00 | 2.67 | 2.67 | 91 | 1006.7 |
| 20260505193411 | 13 | 185 | 4.8 | 20.9 | 0.00 | 2.67 | 2.67 | 91 | 1006.5 |
| 20260505193339 | 13 | 34 | 9.7 | 20.9 | 0.00 | 2.67 | 2.67 | 91 | 1005.8 |
| 20260505192332 | 13 | 117 | 11.3 | 20.9 | 0.00 | 2.67 | 2.67 | 92 | 1005.5 |
| 20260505191834 | 13 | 21 | 8.0 | 19.3 | 0.00 | 2.67 | 2.67 | 92 | 1005.1 |
| 20260505191322 | 13 | 53 | 6.4 | 19.3 | 0.00 | 2.67 | 2.67 | 92 | 1005.7 |
| 20260505191317 | 13 | 114 | 6.4 | 17.7 | 0.00 | 2.67 | 2.67 | 92 | 1005.8 |
| 20260505190252 | 13 | 49 | 6.4 | 20.9 | 0.00 | 2.67 | 2.67 | 92 | 1005.7 |
| 20260505185729 | 13 | 91 | 6.4 | 20.9 | 0.03 | 2.67 | 2.67 | 92 | 1005.7 |
| 20260505185207 | 13 | 100 | 6.4 | 14.5 | 0.03 | 2.67 | 2.67 | 92 | 1006.0 |
| 20260505184705 | 13 | 34 | 8.0 | 20.9 | 0.03 | 2.67 | 2.67 | 91 | 1005.9 |
| 20260505184142 | 13 | 135 | 9.7 | 20.9 | 0.03 | 2.67 | 2.67 | 92 | 1005.7 |
| 20260505183641 | 13 | 23 | 9.7 | 22.5 | 0.03 | 2.67 | 2.67 | 92 | 1005.5 |
| 20260505183139 | 14 | 24 | 9.7 | 22.5 | 0.03 | 2.67 | 2.67 | 91 | 1005.4 |
| 20260505183126 | 14 | 101 | 6.4 | 17.7 | 0.03 | 2.67 | 2.67 | 91 | 1005.5 |
| 20260505182119 | 15 | 115 | 8.0 | 17.7 | 0.03 | 2.67 | 2.67 | 91 | 1005.4 |
| 20260505181616 | 15 | 108 | 8.0 | 17.7 | 0.03 | 2.67 | 2.67 | 91 | 1005.4 |
| 20260505181113 | 15 | 45 | 6.4 | 17.7 | 0.03 | 2.67 | 2.67 | 90 | 1005.4 |
| 20260505180614 | 16 | 116 | 4.8 | 14.5 | 0.03 | 2.67 | 2.67 | 89 | 1005.5 |
| 20260505180053 | 17 | 165 | 4.8 | 12.9 | 0.00 | 2.64 | 2.64 | 90 | 1005.0 |
| 20260505180039 | 17 | 165 | 4.8 | 12.9 | 0.00 | 2.64 | 2.64 | 91 | 1005.0 |
| 20260505175031 | 17 | 53 | 4.8 | 12.9 | 0.00 | 2.64 | 2.64 | 91 | 1004.9 |
| 20260505175014 | 17 | 6 | 3.2 | 11.3 | 0.00 | 2.64 | 2.64 | 91 | 1005.0 |
| 20260505174012 | 17 | 47 | 1.6 | 9.7 | 0.00 | 2.64 | 2.64 | 91 | 1005.1 |
| 20260505173511 | 17 | 119 | 1.6 | 9.7 | 0.00 | 2.64 | 2.64 | 91 | 1005.2 |
| 20260505172944 | 17 | 84 | 1.6 | 8.0 | 0.00 | 2.64 | 2.64 | 91 | 1005.1 |
| 20260505172425 | 17 | 20 | 1.6 | 8.0 | 0.00 | 2.64 | 2.64 | 91 | 1005.1 |
| 20260505171923 | 17 | 29 | 1.6 | 4.8 | 0.00 | 2.64 | 2.64 | 91 | 1005.1 |
| 20260505171356 | 17 | 91 | 1.6 | 12.9 | 0.00 | 2.64 | 2.64 | 91 | 1005.0 |
| 20260505170855 | 17 | 51 | 3.2 | 12.9 | 0.00 | 2.64 | 2.64 | 91 | 1004.9 |
| 20260505170357 | 17 | 75 | 3.2 | 9.7 | 0.00 | 2.64 | 2.64 | 91 | 1004.8 |
| 20260505165832 | 18 | 86 | 3.2 | 9.7 | 0.00 | 2.64 | 2.64 | 90 | 1004.9 |
| 20260505165322 | 18 | 66 | 4.8 | 11.3 | 0.00 | 2.64 | 2.64 | 90 | 1004.9 |
| 20260505164823 | 18 | 38 | 4.8 | 11.3 | 0.00 | 2.64 | 2.64 | 90 | 1005.0 |
| 20260505164741 | 18 | 105 | 3.2 | 11.3 | 0.00 | 2.64 | 2.64 | 89 | 1005.0 |
| 20260505163727 | 18 | 65 | 1.6 | 6.4 | 0.00 | 2.64 | 2.64 | 90 | 1005.1 |
| 20260505163206 | 18 | 20 | 1.6 | 4.8 | 0.00 | 2.64 | 2.64 | 90 | 1005.1 |
| 20260505162707 | 18 | 39 | 1.6 | 6.4 | 0.00 | 2.64 | 2.64 | 89 | 1005.1 |
| 20260505162200 | 18 | 27 | 3.2 | 6.4 | 0.00 | 2.64 | 2.64 | 89 | 1005.0 |
| 20260505161700 | 18 | 39 | 3.2 | 8.0 | 0.00 | 2.64 | 2.64 | 90 | 1005.0 |
| 20260505161148 | 18 | 105 | 3.2 | 12.9 | 0.00 | 2.64 | 2.64 | 91 | 1004.9 |
| 20260505160645 | 18 | 103 | 4.8 | 12.9 | 0.00 | 2.64 | 2.64 | 90 | 1004.8 |
| 20260505160149 | 18 | 68 | 4.8 | 9.7 | 0.00 | 2.64 | 2.64 | 91 | 1004.8 |
| 20260505153033 | 18 | 102 | 4.8 | 11.3 | 0.00 | 2.64 | 2.64 | 93 | 1004.6 |
| 20260505152948 | 17 | 54 | 4.8 | 9.7 | 0.00 | 2.64 | 2.64 | 94 | 1004.5 |
| 20260505152015 | 17 | 54 | 4.8 | 9.7 | 0.00 | 2.64 | 2.64 | 94 | 1004.5 |
| 20260505151516 | 17 | 24 | 3.2 | 9.7 | 0.00 | 2.64 | 2.64 | 94 | 1004.6 |
| 20260505150955 | 17 | 58 | 4.8 | 12.9 | 0.00 | 2.64 | 2.64 | 95 | 1004.6 |
| 20260505150429 | 17 | 77 | 4.8 | 12.9 | 0.00 | 2.64 | 2.64 | 94 | 1004.6 |
| 20260505140201 | 16 | 94 | 1.6 | 4.8 | 0.00 | 2.64 | 2.64 | 97 | 1005.2 |
| 20260505124829 | 16 | 69 | 0.0 | 1.6 | 0.00 | 2.64 | 2.64 | 97 | 1004.8 |
| 20260505124311 | 15 | 84 | 0.0 | 6.4 | 0.00 | 2.64 | 2.64 | 97 | 1004.8 |
| 20260505123745 | 15 | 303 | 0.0 | 6.4 | 0.00 | 2.64 | 2.64 | 97 | 1004.7 |
| 20260505123220 | 15 | 1 | 0.0 | 1.6 | 0.00 | 2.64 | 2.64 | 97 | 1004.6 |
| 20260505122705 | 15 | 279 | 0.0 | 6.4 | 0.00 | 2.64 | 2.64 | 97 | 1004.6 |
| 20260505122141 | 15 | 233 | 0.0 | 6.4 | 0.00 | 2.64 | 2.64 | 97 | 1004.6 |
| 20260505121639 | 15 | 204 | 0.0 | 1.6 | 0.00 | 2.64 | 2.64 | 97 | 1004.6 |
| 20260505121139 | 15 | 112 | 0.0 | 1.6 | 0.00 | 2.64 | 2.64 | 97 | 1004.6 |
| 20260505120637 | 15 | 220 | 0.0 | 1.6 | 0.00 | 2.64 | 2.64 | 97 | 1004.6 |
| 20260505120116 | 15 | 330 | 0.0 | 1.6 | 0.00 | 2.64 | 2.64 | 97 | 1004.5 |
| 20260505115558 | 15 | 108 | 0.0 | 1.6 | 0.00 | 2.64 | 2.64 | 97 | 1004.4 |
| 20260505115057 | 15 | 108 | 0.0 | 3.2 | 0.00 | 2.64 | 2.64 | 97 | 1004.5 |
| 20260505114558 | 15 | 108 | 0.0 | 3.2 | 0.00 | 2.64 | 2.64 | 97 | 1004.4 |
| 20260505114055 | 15 | 58 | 0.0 | 6.4 | 0.00 | 2.64 | 2.64 | 96 | 1004.4 |
| 20260505113535 | 15 | 314 | 0.0 | 1.6 | 0.00 | 2.64 | 2.64 | 96 | 1004.3 |
| 20260505113014 | 15 | 314 | 0.0 | 1.6 | 0.00 | 2.64 | 2.64 | 96 | 1004.4 |
| 20260505112959 | 15 | 193 | 0.0 | 1.6 | 0.00 | 2.64 | 2.64 | 96 | 1004.3 |
| 20260505112014 | 15 | 18 | 0.0 | 4.8 | 0.00 | 2.64 | 2.64 | 96 | 1004.4 |
| 20260505111512 | 15 | 18 | 0.0 | 3.2 | 0.00 | 2.64 | 2.64 | 96 | 1004.3 |
| 20260505110944 | 15 | 51 | 1.6 | 6.4 | 0.00 | 2.64 | 2.64 | 96 | 1004.3 |
| 20260505110414 | 15 | 41 | 1.6 | 6.4 | 0.00 | 2.64 | 2.64 | 96 | 1004.3 |
| 20260505101656 | 15 | 96 | 3.2 | 8.0 | 0.05 | 2.64 | 2.64 | 96 | 1005.1 |
| 20260505101136 | 15 | 113 | 3.2 | 8.0 | 0.05 | 2.64 | 2.64 | 96 | 1005.0 |
| 20260505101120 | 15 | 98 | 3.2 | 8.0 | 0.05 | 2.64 | 2.64 | 96 | 1005.1 |
| 20260505100137 | 15 | 27 | 1.6 | 8.0 | 0.05 | 2.64 | 2.64 | 96 | 1005.2 |
| 20260505095637 | 15 | 26 | 1.6 | 6.4 | 0.05 | 2.64 | 2.64 | 96 | 1005.2 |
| 20260505095133 | 15 | 26 | 1.6 | 6.4 | 0.08 | 2.64 | 2.64 | 96 | 1005.2 |
| 20260505094634 | 15 | 37 | 3.2 | 8.0 | 0.10 | 2.64 | 2.64 | 96 | 1005.2 |
| 20260505094559 | 15 | 17 | 3.2 | 8.0 | 0.13 | 2.64 | 2.64 | 96 | 1005.2 |
| 20260505093543 | 15 | 115 | 3.2 | 8.0 | 0.15 | 2.64 | 2.64 | 96 | 1005.3 |
| 20260505093014 | 15 | 61 | 1.6 | 8.0 | 0.20 | 2.64 | 2.64 | 96 | 1005.5 |
| 20260505092952 | 15 | 100 | 1.6 | 6.4 | 0.20 | 2.62 | 2.62 | 95 | 1005.5 |
| 20260505091946 | 15 | 16 | 1.6 | 4.8 | 0.36 | 2.62 | 2.62 | 95 | 1005.4 |
| 20260505091421 | 15 | 27 | 3.2 | 6.4 | 0.48 | 2.59 | 2.59 | 95 | 1005.4 |
| 20260505090856 | 15 | 82 | 1.6 | 6.4 | 0.53 | 2.59 | 2.59 | 95 | 1005.4 |
| 20260505090356 | 15 | 105 | 1.6 | 8.0 | 0.61 | 2.59 | 2.59 | 95 | 1005.6 |
| 20260505085830 | 15 | 59 | 1.6 | 8.0 | 0.76 | 2.59 | 2.59 | 95 | 1005.4 |
| 20260505085754 | 15 | 73 | 3.2 | 6.4 | 0.84 | 2.57 | 2.57 | 95 | 1005.4 |
| 20260505084803 | 15 | 88 | 1.6 | 6.4 | 0.91 | 2.54 | 2.54 | 95 | 1005.4 |
| 20260505084717 | 15 | 229 | 1.6 | 4.8 | 0.97 | 2.51 | 2.51 | 95 | 1005.8 |
| 20260505083723 | 15 | 245 | 1.6 | 4.8 | 1.04 | 2.49 | 2.49 | 95 | 1005.7 |
| 20260505083711 | 15 | 82 | 0.0 | 1.6 | 1.12 | 2.46 | 2.49 | 95 | 1005.1 |
| 20260505082718 | 15 | 86 | 0.0 | 4.8 | 1.35 | 2.44 | 2.44 | 94 | 1005.2 |
| 20260505082636 | 15 | 93 | 1.6 | 8.0 | 1.30 | 2.36 | 2.36 | 94 | 1004.8 |
| 20260505081635 | 15 | 79 | 1.6 | 8.0 | 1.14 | 2.16 | 2.18 | 94 | 1005.0 |
| 20260505081619 | 15 | 219 | 1.6 | 9.7 | 1.12 | 2.06 | 2.08 | 94 | 1005.2 |
| 20260505080634 | 15 | 15 | 3.2 | 9.7 | 1.22 | 2.01 | 2.01 | 94 | 1005.0 |
| 20260505080130 | 15 | 59 | 1.6 | 11.3 | 1.12 | 1.88 | 1.88 | 94 | 1004.9 |
| 20260505075604 | 15 | 101 | 3.2 | 11.3 | 1.17 | 1.78 | 1.78 | 93 | 1005.5 |
| 20260505075040 | 15 | 32 | 4.8 | 17.7 | 1.04 | 1.65 | 1.68 | 92 | 1004.9 |
| 20260505074541 | 15 | 49 | 6.4 | 17.7 | 1.02 | 1.60 | 1.63 | 92 | 1005.7 |
| 20260505074037 | 16 | 98 | 9.7 | 19.3 | 0.99 | 1.47 | 1.47 | 91 | 1005.9 |
| 20260505073512 | 16 | 108 | 11.3 | 35.4 | 1.30 | 1.42 | 1.42 | 91 | 1005.0 |
| 20260505072946 | 16 | 105 | 11.3 | 35.4 | 1.14 | 1.24 | 1.27 | 92 | 1004.9 |
| 20260505072442 | 16 | 233 | 8.0 | 32.2 | 0.99 | 1.09 | 1.09 | 92 | 1005.9 |
| 20260505071942 | 16 | 131 | 3.2 | 9.7 | 0.99 | 1.07 | 1.07 | 91 | 1003.4 |
| 20260505071438 | 16 | 25 | 3.2 | 9.7 | 0.97 | 1.02 | 1.02 | 91 | 1003.9 |
| 20260505070933 | 16 | 257 | 3.2 | 9.7 | 0.76 | 0.81 | 0.81 | 90 | 1004.6 |
| 20260505070429 | 16 | 57 | 3.2 | 9.7 | 0.76 | 0.79 | 0.79 | 90 | 1003.6 |
| 20260505065925 | 16 | 82 | 1.6 | 6.4 | 0.58 | 0.61 | 0.64 | 89 | 1004.6 |
| 20260505065423 | 16 | 17 | 1.6 | 6.4 | 0.61 | 0.61 | 0.61 | 89 | 1004.5 |
| 20260505064857 | 16 | 49 | 0.0 | 3.2 | 0.58 | 0.58 | 0.58 | 89 | 1004.6 |
| 20260505064332 | 16 | 119 | 1.6 | 4.8 | 0.58 | 0.58 | 0.58 | 88 | 1004.5 |
| 20260505063831 | 16 | 79 | 1.6 | 8.0 | 0.28 | 0.28 | 0.28 | 88 | 1004.7 |
| 20260505063328 | 17 | 246 | 1.6 | 8.0 | 0.13 | 0.13 | 0.13 | 87 | 1006.0 |
| 20260505062823 | 17 | 276 | 0.0 | 3.2 | 0.10 | 0.10 | 0.10 | 86 | 1005.9 |
| 20260505062255 | 17 | 162 | 0.0 | 3.2 | 0.10 | 0.10 | 0.10 | 85 | 1004.8 |
| 20260505061730 | 17 | 101 | 0.0 | 3.2 | 0.08 | 0.08 | 0.08 | 84 | 1004.6 |
| 20260505061229 | 17 | 108 | 0.0 | 4.8 | 0.05 | 0.05 | 0.05 | 84 | 1005.0 |
| 20260505060726 | 17 | 37 | 0.0 | 4.8 | 0.05 | 0.05 | 0.05 | 82 | 1005.4 |
| 20260505060213 | 18 | 113 | 0.0 | 1.6 | 0.03 | 0.03 | 0.03 | 81 | 1005.6 |
| 20260505060127 | 18 | 163 | 0.0 | 0.0 | 0.00 | 0.00 | 0.03 | 80 | 1005.9 |
| 20260505055120 | 18 | 163 | 0.0 | 0.0 | 0.00 | 0.00 | 0.00 | 78 | 1006.1 |
| 20260505055108 | 18 | 163 | 0.0 | 0.0 | 0.00 | 0.00 | 0.00 | 78 | 1006.1 |
| 20260505054112 | 18 | 163 | 0.0 | 0.0 | 0.00 | 0.00 | 0.00 | 78 | 1006.0 |
| 20260505053609 | 18 | 157 | 0.0 | 0.0 | 0.00 | 0.00 | 0.00 | 77 | 1005.8 |
| 20260505053043 | 18 | 160 | 0.0 | 0.0 | 0.00 | 0.00 | 0.00 | 77 | 1005.9 |
| 20260505052516 | 18 | 160 | 0.0 | 4.8 | 0.00 | 0.00 | 0.00 | 77 | 1005.9 |
| 20260505052012 | 18 | 159 | 0.0 | 4.8 | 0.00 | 0.00 | 0.00 | 77 | 1005.7 |
| 20260505051930 | 18 | 135 | 0.0 | 3.2 | 0.00 | 0.00 | 0.00 | 77 | 1005.4 |
| 20260505050943 | 18 | 139 | 0.0 | 3.2 | 0.00 | 0.00 | 0.00 | 77 | 1005.4 |
| 20260505050440 | 18 | 138 | 0.0 | 1.6 | 0.00 | 0.00 | 0.00 | 78 | 1005.4 |
| 20260505041317 | 17 | 150 | 0.0 | 0.0 | 0.00 | 0.00 | 0.00 | 80 | 1005.8 |
| 20260505040754 | 17 | 150 | 0.0 | 1.6 | 0.00 | 0.00 | 0.00 | 80 | 1005.9 |
| 20260505040249 | 17 | 177 | 0.0 | 1.6 | 0.00 | 0.00 | 0.00 | 80 | 1005.9 |
| 20260505040235 | 17 | 143 | 0.0 | 1.6 | 0.00 | 0.00 | 0.00 | 79 | 1006.0 |
| 20260505035241 | 17 | 143 | 0.0 | 1.6 | 0.00 | 0.00 | 0.00 | 79 | 1005.9 |
| 20260505034744 | 17 | 143 | 0.0 | 1.6 | 0.00 | 0.00 | 0.00 | 79 | 1006.0 |
| 20260505034725 | 17 | 143 | 0.0 | 1.6 | 0.00 | 0.00 | 0.00 | 78 | 1006.3 |
| 20260505033731 | 18 | 184 | 0.0 | 0.0 | 0.00 | 0.00 | 0.00 | 78 | 1006.1 |
| 20260505033203 | 18 | 160 | 0.0 | 1.6 | 0.00 | 0.00 | 0.00 | 78 | 1006.1 |
| 20260505032702 | 18 | 148 | 0.0 | 1.6 | 0.00 | 0.00 | 0.00 | 78 | 1006.3 |
| 20260505032159 | 18 | 181 | 0.0 | 1.6 | 0.00 | 0.00 | 0.00 | 78 | 1006.1 |
| 20260505031634 | 18 | 141 | 0.0 | 1.6 | 0.00 | 0.00 | 0.00 | 78 | 1006.1 |
| 20260505031131 | 18 | 214 | 0.0 | 0.0 | 0.00 | 0.00 | 0.00 | 78 | 1006.1 |
| 20260505030626 | 18 | 153 | 0.0 | 1.6 | 0.00 | 0.00 | 0.00 | 78 | 1006.1 |
| 20260505030119 | 18 | 153 | 0.0 | 1.6 | 0.00 | 0.00 | 0.00 | 77 | 1006.3 |
| 20260505025552 | 18 | 146 | 0.0 | 1.6 | 0.00 | 0.00 | 0.00 | 77 | 1006.5 |
| 20260505025029 | 18 | 145 | 0.0 | 1.6 | 0.00 | 0.00 | 0.00 | 77 | 1006.4 |
| 20260505024503 | 18 | 146 | 0.0 | 1.6 | 0.00 | 0.00 | 0.00 | 77 | 1006.4 |
| 20260505023935 | 18 | 146 | 0.0 | 1.6 | 0.00 | 0.00 | 0.00 | 77 | 1006.4 |
| 20260505023918 | 18 | 146 | 0.0 | 3.2 | 0.00 | 0.00 | 0.00 | 77 | 1006.3 |
| 20260505022907 | 18 | 140 | 0.0 | 3.2 | 0.00 | 0.00 | 0.00 | 77 | 1006.0 |
| 20260505022354 | 18 | 139 | 0.0 | 0.0 | 0.00 | 0.00 | 0.00 | 77 | 1005.9 |
| 20260505021853 | 18 | 139 | 0.0 | 1.6 | 0.00 | 0.00 | 0.00 | 77 | 1006.1 |
| 20260505021352 | 18 | 139 | 0.0 | 1.6 | 0.00 | 0.00 | 0.00 | 77 | 1005.9 |
| 20260505021338 | 18 | 139 | 0.0 | 1.6 | 0.00 | 0.00 | 0.00 | 77 | 1005.9 |
| 20260505020327 | 18 | 148 | 0.0 | 0.0 | 0.00 | 0.00 | 0.00 | 77 | 1005.8 |
| 20260505015824 | 18 | 159 | 0.0 | 0.0 | 0.00 | 0.00 | 0.00 | 76 | 1005.7 |
| 20260505015323 | 18 | 159 | 0.0 | 0.0 | 0.00 | 0.00 | 0.00 | 76 | 1005.6 |
| 20260505015238 | 18 | 159 | 0.0 | 0.0 | 0.00 | 0.00 | 0.00 | 76 | 1005.7 |
| 20260505014238 | 18 | 159 | 0.0 | 0.0 | 0.00 | 0.00 | 0.00 | 75 | 1005.5 |
| 20260505013740 | 18 | 159 | 0.0 | 0.0 | 0.00 | 0.00 | 0.00 | 75 | 1005.4 |
| 20260505013224 | 18 | 159 | 0.0 | 0.0 | 0.00 | 0.00 | 0.00 | 74 | 1005.6 |
| 20260505012722 | 19 | 159 | 0.0 | 0.0 | 0.00 | 0.00 | 0.00 | 73 | 1005.7 |
| 20260505012223 | 19 | 159 | 0.0 | 0.0 | 0.00 | 0.00 | 0.00 | 72 | 1005.5 |
| 20260505012206 | 20 | 159 | 0.0 | 0.0 | 0.00 | 0.00 | 0.00 | 72 | 1005.4 |
| 20260505011221 | 20 | 159 | 0.0 | 0.0 | 0.00 | 0.00 | 0.00 | 71 | 1005.3 |
| 20260505010720 | 20 | 209 | 0.0 | 0.0 | 0.00 | 0.00 | 0.00 | 70 | 1005.2 |
| 20260505010201 | 20 | 209 | 0.0 | 3.2 | 0.00 | 0.00 | 0.00 | 69 | 1005.1 |
| 20260505005659 | 21 | 138 | 0.0 | 3.2 | 0.00 | 0.00 | 0.00 | 68 | 1005.1 |
| 20260505005127 | 21 | 211 | 0.0 | 3.2 | 0.00 | 0.00 | 0.00 | 68 | 1005.1 |
| 20260505004625 | 21 | 200 | 0.0 | 3.2 | 0.00 | 0.00 | 0.00 | 67 | 1005.1 |
| 20260505004123 | 21 | 209 | 0.0 | 9.7 | 0.00 | 0.00 | 0.00 | 67 | 1005.1 |
| 20260505003623 | 21 | 128 | 0.0 | 9.7 | 0.00 | 0.00 | 0.00 | 66 | 1005.0 |
| 20260505003120 | 21 | 129 | 0.0 | 1.6 | 0.00 | 0.00 | 0.00 | 66 | 1005.1 |
| 20260505002620 | 22 | 130 | 0.0 | 3.2 | 0.00 | 0.00 | 0.00 | 66 | 1005.1 |
| 20260505002120 | 22 | 145 | 0.0 | 3.2 | 0.00 | 0.00 | 0.00 | 65 | 1005.1 |
| 20260505001617 | 22 | 195 | 0.0 | 4.8 | 0.00 | 0.00 | 0.00 | 64 | 1005.1 |
| 20260505001119 | 22 | 150 | 1.6 | 4.8 | 0.00 | 0.00 | 0.00 | 63 | 1005.2 |
| 20260505000553 | 23 | 205 | 1.6 | 8.0 | 0.00 | 0.00 | 0.00 | 63 | 1005.2 |
| 20260505000038 | 23 | 212 | 1.6 | 8.0 | 0.00 | 0.00 | 0.00 | 62 | 1005.2 |
| 20260504235536 | 23 | 208 | 3.2 | 9.7 | 0.00 | 0.00 | 0.00 | 61 | 1004.9 |
| 20260504235039 | 23 | 210 | 1.6 | 9.7 | 0.00 | 0.00 | 0.00 | 61 | 1004.9 |
| 20260504234511 | 23 | 236 | 1.6 | 6.4 | 0.00 | 0.00 | 0.00 | 61 | 1005.0 |
| 20260504233948 | 23 | 136 | 1.6 | 4.8 | 0.00 | 0.00 | 0.00 | 61 | 1005.1 |
| 20260504233425 | 24 | 204 | 3.2 | 8.0 | 0.00 | 0.00 | 0.00 | 60 | 1005.0 |
| 20260504232925 | 24 | 192 | 3.2 | 8.0 | 0.00 | 0.00 | 0.00 | 59 | 1005.1 |
| 20260504232426 | 24 | 187 | 3.2 | 8.0 | 0.00 | 0.00 | 0.00 | 60 | 1005.1 |
| 20260504231908 | 24 | 209 | 3.2 | 11.3 | 0.00 | 0.00 | 0.00 | 60 | 1005.1 |
| 20260504231352 | 24 | 210 | 3.2 | 11.3 | 0.00 | 0.00 | 0.00 | 58 | 1005.2 |
| 20260504230855 | 25 | 185 | 4.8 | 11.3 | 0.00 | 0.00 | 0.00 | 57 | 1005.1 |
| 20260504230331 | 25 | 148 | 3.2 | 11.3 | 0.00 | 0.00 | 0.00 | 57 | 1005.2 |
| 20260504225830 | 25 | 122 | 3.2 | 6.4 | 0.00 | 0.00 | 0.00 | 58 | 1005.2 |
| 20260504225331 | 25 | 212 | 3.2 | 6.4 | 0.00 | 0.00 | 0.00 | 58 | 1005.2 |
| 20260504224828 | 25 | 214 | 3.2 | 11.3 | 0.00 | 0.00 | 0.00 | 58 | 1005.1 |
| 20260504224327 | 25 | 154 | 3.2 | 11.3 | 0.00 | 0.00 | 0.00 | 57 | 1005.0 |
| 20260504223829 | 25 | 113 | 3.2 | 11.3 | 0.00 | 0.00 | 0.00 | 57 | 1005.1 |
| 20260504223809 | 25 | 136 | 4.8 | 11.3 | 0.00 | 0.00 | 0.00 | 57 | 1005.0 |
| 20260504222827 | 25 | 134 | 4.8 | 12.9 | 0.00 | 0.00 | 0.00 | 58 | 1005.1 |
| 20260504222326 | 25 | 164 | 4.8 | 12.9 | 0.00 | 0.00 | 0.00 | 57 | 1005.0 |
| 20260504221827 | 25 | 224 | 3.2 | 11.3 | 0.00 | 0.00 | 0.00 | 58 | 1005.1 |
| 20260504221302 | 25 | 219 | 3.2 | 9.7 | 0.00 | 0.00 | 0.00 | 57 | 1005.1 |
| 20260504220737 | 25 | 156 | 3.2 | 6.4 | 0.00 | 0.00 | 0.00 | 56 | 1005.1 |
| 20260504220224 | 25 | 167 | 3.2 | 9.7 | 0.00 | 0.00 | 0.00 | 56 | 1005.1 |
| 20260504215723 | 25 | 200 | 3.2 | 9.7 | 0.00 | 0.00 | 0.00 | 57 | 1005.2 |
| 20260504215223 | 26 | 195 | 3.2 | 9.7 | 0.00 | 0.00 | 0.00 | 56 | 1005.4 |
| 20260504214946 | 26 | 153 | 3.2 | 9.7 | 0.00 | 0.00 | 0.00 | 55 | 1005.5 |
| 20260504214458 | 26 | 217 | 4.8 | 11.3 | 0.00 | 0.00 | 0.00 | 57 | 1005.4 |
| 20260504214434 | 26 | 184 | 3.2 | 9.7 | 0.00 | 0.00 | 0.00 | 56 | 1005.2 |
| 20260504214351 | 26 | 137 | 3.2 | 9.7 | 0.00 | 0.00 | 0.00 | 59 | 1005.4 |
| 20260504214307 | 26 | 245 | 3.2 | 9.7 | 0.00 | 0.00 | 0.00 | 56 | 1005.3 |
| 20260504212655 | 26 | 217 | 4.8 | 11.3 | 0.00 | 0.00 | 0.00 | 57 | 1005.4 |
| 20260504212134 | 25 | 193 | 4.8 | 11.3 | 0.00 | 0.00 | 0.00 | 56 | 1005.5 |
| 20260504211634 | 25 | 188 | 4.8 | 11.3 | 0.00 | 0.00 | 0.00 | 56 | 1005.6 |
| 20260504211117 | 25 | 143 | 4.8 | 12.9 | 0.00 | 0.00 | 0.00 | 57 | 1005.6 |
| 20260504210621 | 25 | 178 | 4.8 | 12.9 | 0.00 | 0.00 | 0.00 | 55 | 1005.7 |
| 20260504210050 | 25 | 232 | 4.8 | 9.7 | 0.00 | 0.00 | 0.00 | 57 | 1005.9 |
| 20260504205550 | 25 | 210 | 4.8 | 9.7 | 0.00 | 0.00 | 0.00 | 56 | 1005.9 |
| 20260504205041 | 26 | 228 | 4.8 | 11.3 | 0.00 | 0.00 | 0.00 | 57 | 1006.0 |
| 20260504204540 | 26 | 240 | 4.8 | 11.3 | 0.00 | 0.00 | 0.00 | 56 | 1005.9 |
| 20260504204018 | 26 | 170 | 4.8 | 19.3 | 0.00 | 0.00 | 0.00 | 57 | 1006.0 |
| 20260504203520 | 26 | 150 | 4.8 | 19.3 | 0.00 | 0.00 | 0.00 | 55 | 1006.1 |
| 20260504203005 | 26 | 125 | 4.8 | 12.9 | 0.00 | 0.00 | 0.00 | 58 | 1006.3 |
| 20260504202506 | 26 | 214 | 4.8 | 12.9 | 0.00 | 0.00 | 0.00 | 55 | 1006.4 |
| 20260504202001 | 26 | 172 | 4.8 | 11.3 | 0.00 | 0.00 | 0.00 | 56 | 1006.4 |
| 20260504201503 | 26 | 193 | 3.2 | 11.3 | 0.00 | 0.00 | 0.00 | 55 | 1006.5 |
| 20260504201002 | 26 | 147 | 3.2 | 11.3 | 0.00 | 0.00 | 0.00 | 58 | 1006.6 |
| 20260504200441 | 26 | 226 | 4.8 | 11.3 | 0.00 | 0.00 | 0.00 | 57 | 1006.7 |